[[{"header":{"parameterUnit":"m.s-1","parameterCategory":1,"la1":30.2991,"la2":30.254,"lo1":-89.0895,"lo2":-89.0444,"dy":0.0017,"dx":0.0017,"nx":28,"ny":28,"refTime":"2023-10-02T03:00:00:Z","depth":0,"parameterNumber":2,"parameterNumberName":"U-component_of_WINDS"},"data":[0,0,0,0,0,0,0,0,0,0,0,0,0,0,0,0,0,0,0,0,0,0,0,0,0,0,0,0,0,0,0,0,0,0,0,0,0,0,0,0,0,0,0,0,0,0,0,0,0,0,0,0,0,0,0,0,0,0,-4.8328,-4.8328,0,-4.837,-4.8371,-4.8371,-4.82,-4.8195,-4.819,-4.8185,-4.8229,-4.8235,-4.824,0,0,0,0,0,0,0,0,0,0,0,0,0,-4.8099,-4.8104,-4.8328,-4.8328,-4.8329,-4.837,-4.8371,-4.8371,-4.8201,-4.8195,-4.8189,-4.8183,-4.8227,-4.8234,-4.8241,0,0,0,0,0,0,0,0,0,0,0,0,0,-4.8176,-4.8106,-4.8328,-4.8249,-4.8242,-4.837,-4.8371,-4.8371,-4.8202,-4.8195,-4.8187,-4.818,-4.8225,-4.8233,-4.8242,-4.8448,0,0,-4.8269,-4.8273,0,0,0,0,0,0,0,0,-4.8171,-4.8184,-4.826,-4.8255,-4.8247,-4.8272,-4.8306,-4.8397,-4.8204,-4.8218,-4.8185,-4.8176,-4.8249,-4.8256,-4.828,-4.845,-4.8452,-4.827,-4.8275,-4.8279,-4.8281,0,0,0,0,0,0,0,-4.8166,-4.8181,-4.8344,-4.8261,-4.8254,-4.8211,-4.8214,-4.8322,-4.8275,-4.8216,-4.8203,-4.8211,-4.8244,-4.8272,-4.828,-4.8452,-4.8269,-4.8277,-4.8283,-4.8286,-4.8792,-4.88,0,0,0,0,0,0,-4.8171,-4.8178,-4.8343,-4.8346,-4.819,-4.8221,-4.8224,-4.8272,-4.8274,-4.8267,-4.8217,-4.8203,-4.8261,-4.827,-4.8281,-4.8522,-4.8279,-4.8287,-4.8292,-4.8784,-4.8794,-4.8803,0,0,0,0,0,0,-4.8167,-4.8188,-4.8341,-4.8259,-4.8275,-4.8233,-4.8288,-4.8277,-4.8304,-4.8275,-4.8266,-4.8254,-4.8255,-4.8269,-4.8407,-4.8521,-4.8291,-4.8299,-4.8774,-4.8787,-4.8798,-4.9006,0,0,0,0,0,0,-4.8161,-4.8187,-4.8265,-4.8262,-4.828,-4.8468,-4.8295,-4.8283,-4.832,-4.8301,-4.8307,-4.8301,-4.825,-4.8395,-4.8416,-4.8529,-4.8306,-4.8764,-4.878,-4.8794,-4.8988,-4.9023,-4.9053,0,0,0,0,0,-4.8154,-4.8322,-4.827,-4.8291,-4.8377,-4.8475,-4.8485,-4.8424,-4.833,-4.8407,-4.8388,-4.8301,-4.8505,-4.8411,-4.8433,-4.855,-4.8757,-4.8775,-4.8793,-4.8974,-4.9017,-4.9053,0,0,0,0,0,0,-4.834,-4.832,-4.8262,-4.8435,-4.8458,-4.8446,-4.8542,-4.8471,-4.8521,-4.8502,-4.8423,-4.8426,-4.8579,-4.8578,-4.8473,-4.8749,-4.8614,-4.8638,-4.8744,-4.8784,-4.8816,-4.8813,-4.8313,0,0,0,0,0,-4.8402,-4.8483,-4.8461,-4.8615,-4.863,-4.8585,-4.8625,-4.8576,-4.8596,-4.8605,-4.8596,-4.862,-4.8689,-4.8737,-4.8799,-4.8987,-4.8986,-4.9079,-4.9111,-4.9138,-4.9159,-4.9259,-4.9299,-4.8863,-4.8863,-4.8862,0,0,-4.8529,-4.8528,-4.8584,-4.8653,-4.8665,-4.8751,-4.8594,-4.8692,-4.8755,-4.862,-4.875,-4.8745,-4.8766,-4.8931,-4.9003,-4.8935,-4.9279,-4.9161,-4.9183,-4.919,-4.9282,-4.9323,-4.936,-4.8875,-4.8873,-4.8871,0,0,-4.8805,-4.8812,-4.8941,-4.8957,-4.8977,-4.8946,-4.8977,-4.8976,-4.8967,-4.9097,-4.8998,-4.9071,-4.9192,-4.9211,-4.9237,-4.952,-4.9441,-4.9542,-4.9712,-4.981,-4.9844,-4.9874,-4.9975,-5.0012,-4.9564,-4.9564,-4.9565,0,-4.896,-4.9086,-4.9017,-4.9121,-4.9154,-4.9036,-4.9166,-4.9184,-4.9224,-4.925,-4.9173,-4.9322,-4.9328,-4.9495,-4.9564,-4.9589,-4.9622,-4.9542,-4.9845,-4.9874,-4.9901,-4.9997,-5.0035,-4.9577,-4.9575,-4.9574,-4.9573,0,-4.9276,-4.9365,-4.9467,-4.9509,-4.9553,-4.967,-4.9618,-4.9671,-4.9618,-4.9595,-4.9728,-4.9731,-4.9792,-4.9827,-4.9776,-4.9988,-4.9945,-4.9858,-4.9721,-4.9956,-5.0045,-5.0081,-4.9594,-4.959,-4.9586,-4.9583,0,0,-4.9671,-4.9673,-4.9711,-4.9729,-4.9742,-4.9809,-4.9921,-4.998,-5.0027,-5.0058,-5.015,-5.0255,-5.0174,-5.0203,-5.0153,-5.0239,-5.0463,-5.0141,-5.014,-5.0201,-5.0696,-5.0762,-5.0805,-5.0411,-5.0417,-5.0423,-5.0694,0,-4.9942,-5.0133,-5.0073,-5.0266,-5.0347,-5.0235,-5.0332,-5.0351,-5.0333,-5.0398,-5.0377,-5.0453,-5.0341,-5.0358,-5.0438,-5.0419,-5.0562,-5.0399,-5.0495,-5.0499,-5.0493,-5.0851,-5.0921,-5.1177,-5.0728,-5.0734,-5.0738,0,-5.0283,-5.0328,-5.0529,-5.0529,-5.056,-5.0649,-5.0698,-5.0762,-5.0781,-5.0761,-5.0795,-5.0726,-5.0835,-5.0698,-5.0847,-5.0738,-5.0773,-5.077,-5.0779,-5.0785,-5.0633,-5.0868,-5.1257,-5.1296,-5.0792,-5.0788,-5.0784,0,-5.0552,-5.0662,-5.0796,-5.0814,-5.0817,-5.0882,-5.0886,-5.0897,-5.0937,-5.098,-5.1004,-5.106,-5.109,-5.1135,-5.1083,-5.0988,-5.124,-5.1099,-5.1227,-5.1228,-5.1285,-5.1282,-5.1686,-5.1309,-5.1308,-5.1307,-5.1306,0,-5.086,-5.0987,-5.0917,-5.1,-5.1138,-5.1069,-5.1208,-5.1199,-5.1211,-5.1289,-5.1196,-5.1272,-5.12,-5.1269,-5.123,-5.1359,-5.1373,-5.136,-5.1348,-5.1369,-5.1371,-5.1391,-5.1372,-5.1317,-5.1315,-5.1313,-5.1311,0,-5.1183,-5.1141,-5.128,-5.1271,-5.1272,-5.1375,-5.1367,-5.1443,-5.1417,-5.1519,-5.1538,-5.1499,-5.1575,-5.1528,-5.1606,-5.1579,-5.1748,-5.1712,-5.1742,-5.1732,-5.1863,-5.1852,-5.2294,-5.2349,-5.1937,-5.1941,-5.1944,0,-5.1383,-5.1478,-5.148,-5.1526,-5.1536,-5.1612,-5.1651,-5.1586,-5.1631,-5.166,-5.1733,-5.1801,-5.1853,-5.198,-5.1958,-5.2018,-5.1982,-5.2133,-5.199,-5.2007,-5.1984,-5.1979,-5.1988,-5.2162,-5.2167,-5.2171,-5.2174,0,-5.1742,-5.1716,-5.1777,-5.1831,-5.1881,-5.192,-5.1951,-5.1995,-5.1929,-5.1985,-5.2062,-5.2102,-5.2181,-5.2251,-5.2301,-5.2304,-5.2229,-5.2219,-5.2251,-5.2273,-5.2287,-5.2281,-5.1821,-5.2209,-5.2205,-5.2203,-5.2201,-5.22,-5.2009,-5.2088,-5.2102,-5.2172,-5.2189,-5.2221,-5.2292,-5.2275,-5.2338,-5.2398,-5.2356,-5.2448,-5.2463,-5.2522,-5.2536,-5.2606,-5.2545,-5.2592,-5.2604,-5.2617,-5.2635,-5.2276,-5.2615,-5.2614,-5.2613,-5.2612,-5.2611,0,-5.2363,-5.2366,-5.2432,-5.2479,-5.2535,-5.2458,-5.2489,-5.2541,-5.2623,-5.2644,-5.2696,-5.2785,-5.2852,-5.2835,-5.2895,-5.2955,-5.2922,-5.2973,-5.2968,-5.297,-5.2687,-5.2652,-5.2999,-5.2999,-5.2998,-5.2998,-5.2998,-5.2998,-5.2554,-5.2684,-5.266,-5.2797,-5.2799,-5.2888,-5.2912,-5.2941,-5.2957,-5.3061,-5.3116,-5.3104,-5.311,-5.317,-5.3228,-5.3221,-5.3247,-5.3311,-5.3292,-5.3028,-5.299,-5.2953,-5.2921,-5.3318,-5.3318,-5.3569,-5.3571,-5.3573]},{"header":{"parameterUnit":"m.s-1","parameterCategory":1,"la1":30.2991,"la2":30.254,"lo1":-89.0895,"lo2":-89.0444,"dy":0.0017,"dx":0.0017,"nx":28,"ny":28,"refTime":"2023-10-02T03:00:00:Z","depth":0,"parameterNumber":3,"parameterNumberName":"V-component_of_WINDS"},"data":[0,0,0,0,0,0,0,0,0,0,0,0,0,0,0,0,0,0,0,0,0,0,0,0,0,0,0,0,0,0,0,0,0,0,0,0,0,0,0,0,0,0,0,0,0,0,0,0,0,0,0,0,0,0,0,0,0,0,-1.8578,-1.8578,0,-1.8582,-1.8582,-1.8582,-1.8585,-1.8585,-1.8585,-1.8585,-1.8587,-1.8587,-1.8587,0,0,0,0,0,0,0,0,0,0,0,0,0,-1.8568,-1.8568,-1.8578,-1.8578,-1.8578,-1.8582,-1.8582,-1.8582,-1.8585,-1.8585,-1.8585,-1.8585,-1.8587,-1.8587,-1.8587,0,0,0,0,0,0,0,0,0,0,0,0,0,-1.8572,-1.8568,-1.8578,-1.858,-1.858,-1.8582,-1.8582,-1.8582,-1.8585,-1.8585,-1.8585,-1.8585,-1.8587,-1.8587,-1.8587,-1.8587,0,0,-1.8587,-1.8587,0,0,0,0,0,0,0,0,-1.8572,-1.8573,-1.858,-1.858,-1.858,-1.8583,-1.858,-1.8584,-1.8585,-1.8583,-1.8585,-1.8585,-1.8586,-1.8586,-1.8587,-1.8587,-1.8587,-1.8587,-1.8587,-1.8587,-1.8588,0,0,0,0,0,0,0,-1.8572,-1.8572,-1.858,-1.858,-1.858,-1.8579,-1.858,-1.858,-1.8584,-1.8583,-1.8583,-1.8584,-1.8586,-1.8586,-1.8587,-1.8587,-1.8587,-1.8587,-1.8588,-1.8588,-1.8584,-1.8584,0,0,0,0,0,0,-1.8572,-1.8572,-1.858,-1.858,-1.8576,-1.8579,-1.858,-1.8582,-1.8584,-1.8585,-1.8584,-1.8584,-1.8586,-1.8587,-1.8587,-1.8584,-1.8587,-1.8588,-1.8588,-1.8584,-1.8584,-1.8584,0,0,0,0,0,0,-1.8571,-1.8572,-1.8579,-1.8576,-1.8577,-1.858,-1.8582,-1.8582,-1.8583,-1.8585,-1.8585,-1.8584,-1.8586,-1.8587,-1.8586,-1.8585,-1.8588,-1.8588,-1.8585,-1.8584,-1.8584,-1.8581,0,0,0,0,0,0,-1.8571,-1.8572,-1.8573,-1.8576,-1.8577,-1.858,-1.8582,-1.8582,-1.8583,-1.8584,-1.8585,-1.8585,-1.8586,-1.8586,-1.8586,-1.8585,-1.8588,-1.8585,-1.8584,-1.8584,-1.8582,-1.8581,-1.8581,0,0,0,0,0,-1.8571,-1.8573,-1.8573,-1.8574,-1.8579,-1.858,-1.8581,-1.8583,-1.8583,-1.8583,-1.8584,-1.8585,-1.8585,-1.8586,-1.8586,-1.8585,-1.8585,-1.8585,-1.8584,-1.8582,-1.8581,-1.8581,0,0,0,0,0,0,-1.857,-1.8573,-1.8574,-1.8577,-1.8578,-1.8581,-1.8581,-1.8582,-1.8583,-1.8583,-1.8584,-1.8585,-1.8584,-1.8584,-1.8586,-1.8583,-1.8585,-1.8584,-1.8583,-1.8582,-1.8582,-1.8581,-1.8588,0,0,0,0,0,-1.857,-1.8572,-1.8574,-1.8576,-1.8577,-1.8579,-1.858,-1.8581,-1.8582,-1.8582,-1.8583,-1.8583,-1.8583,-1.8583,-1.8583,-1.8581,-1.8581,-1.858,-1.858,-1.8579,-1.8579,-1.8576,-1.8575,-1.8583,-1.8583,-1.8583,0,0,-1.857,-1.8572,-1.8573,-1.8576,-1.8577,-1.8578,-1.8579,-1.8581,-1.858,-1.8582,-1.8582,-1.8582,-1.8582,-1.8581,-1.858,-1.8581,-1.8576,-1.8579,-1.8579,-1.8578,-1.8575,-1.8574,-1.8574,-1.8583,-1.8583,-1.8583,0,0,-1.857,-1.8573,-1.8574,-1.8575,-1.8576,-1.8577,-1.8577,-1.8579,-1.8579,-1.8578,-1.8579,-1.8578,-1.8578,-1.8577,-1.8577,-1.8574,-1.8574,-1.8574,-1.8571,-1.8568,-1.8567,-1.8566,-1.8563,-1.8562,-1.8573,-1.8573,-1.8573,0,-1.857,-1.8572,-1.8574,-1.8575,-1.8575,-1.8576,-1.8576,-1.8576,-1.8577,-1.8577,-1.8578,-1.8576,-1.8576,-1.8573,-1.8572,-1.8573,-1.8571,-1.8573,-1.8567,-1.8567,-1.8566,-1.8563,-1.8562,-1.8573,-1.8573,-1.8573,-1.8573,0,-1.8571,-1.8572,-1.8572,-1.8573,-1.8573,-1.8573,-1.8574,-1.8573,-1.8573,-1.8573,-1.8571,-1.8571,-1.857,-1.8569,-1.857,-1.8566,-1.8566,-1.8567,-1.8569,-1.8565,-1.8562,-1.8561,-1.8573,-1.8573,-1.8573,-1.8573,0,0,-1.8573,-1.8573,-1.8573,-1.8572,-1.8572,-1.8572,-1.8571,-1.857,-1.8568,-1.8568,-1.8566,-1.8564,-1.8565,-1.8564,-1.8564,-1.8562,-1.8556,-1.8563,-1.8562,-1.856,-1.8549,-1.8547,-1.8546,-1.8556,-1.8556,-1.8556,-1.8548,0,-1.8572,-1.8571,-1.8572,-1.857,-1.8569,-1.8569,-1.8568,-1.8567,-1.8566,-1.8564,-1.8563,-1.8561,-1.8562,-1.8562,-1.8559,-1.8557,-1.8554,-1.8558,-1.8552,-1.8552,-1.8552,-1.8545,-1.8544,-1.8536,-1.8547,-1.8547,-1.8547,0,-1.8572,-1.8571,-1.8569,-1.8567,-1.8567,-1.8566,-1.8563,-1.8562,-1.856,-1.8559,-1.8557,-1.8557,-1.8553,-1.8555,-1.8549,-1.8552,-1.8549,-1.8548,-1.8548,-1.8547,-1.8549,-1.8542,-1.8534,-1.8533,-1.8545,-1.8546,-1.8546,0,-1.8571,-1.857,-1.8568,-1.8567,-1.8565,-1.8564,-1.8563,-1.856,-1.8559,-1.8556,-1.8554,-1.8551,-1.8549,-1.8546,-1.8544,-1.8546,-1.8537,-1.8539,-1.8535,-1.8535,-1.8533,-1.8533,-1.8523,-1.8533,-1.8533,-1.8533,-1.8533,0,-1.857,-1.8569,-1.8567,-1.8566,-1.8563,-1.8562,-1.8559,-1.8558,-1.8555,-1.8552,-1.8552,-1.8549,-1.8547,-1.8543,-1.8541,-1.8535,-1.8534,-1.8532,-1.8532,-1.8532,-1.8532,-1.853,-1.853,-1.8533,-1.8533,-1.8533,-1.8533,0,-1.8569,-1.8568,-1.8566,-1.8563,-1.8562,-1.856,-1.8557,-1.8555,-1.8553,-1.8549,-1.8548,-1.8545,-1.854,-1.8538,-1.8532,-1.853,-1.8523,-1.8523,-1.8524,-1.8523,-1.8518,-1.8518,-1.8506,-1.8504,-1.8516,-1.8516,-1.8516,0,-1.8568,-1.8567,-1.8564,-1.8562,-1.856,-1.8557,-1.8555,-1.8554,-1.8551,-1.8547,-1.8544,-1.8539,-1.8535,-1.8526,-1.8523,-1.8517,-1.8517,-1.8513,-1.8516,-1.8515,-1.8515,-1.8514,-1.8513,-1.8512,-1.8512,-1.8512,-1.8512,0,-1.8566,-1.8565,-1.8563,-1.8559,-1.8556,-1.8553,-1.855,-1.8548,-1.8545,-1.8542,-1.8537,-1.8534,-1.8526,-1.8521,-1.8514,-1.8512,-1.851,-1.8511,-1.8509,-1.8509,-1.8509,-1.8507,-1.8521,-1.8511,-1.8511,-1.8511,-1.8511,-1.8511,-1.8564,-1.8562,-1.8559,-1.8555,-1.8552,-1.8548,-1.8545,-1.8542,-1.8538,-1.8533,-1.8531,-1.8525,-1.852,-1.8511,-1.8508,-1.8502,-1.8503,-1.8501,-1.85,-1.8499,-1.8498,-1.851,-1.8501,-1.8501,-1.8501,-1.8501,-1.8501,0,-1.8561,-1.8558,-1.8554,-1.855,-1.8546,-1.8545,-1.8541,-1.8537,-1.8532,-1.8528,-1.8523,-1.8515,-1.8509,-1.8504,-1.8497,-1.8493,-1.8492,-1.8491,-1.8491,-1.8489,-1.8499,-1.85,-1.8491,-1.8491,-1.8491,-1.8491,-1.8491,-1.8491,-1.8559,-1.8554,-1.8552,-1.8544,-1.8541,-1.8535,-1.8533,-1.8528,-1.8524,-1.8516,-1.8511,-1.8508,-1.8502,-1.8494,-1.8487,-1.8486,-1.8482,-1.8481,-1.8479,-1.8488,-1.8489,-1.849,-1.8491,-1.8481,-1.8481,-1.847,-1.847,-1.847]}]]